Content
SEND FEEDBACK

Daily
Averages
Monthly
Summary
United States of America

PERU, VERMONT


Home > North America > United States > Vermont
Elevation: 1660 feet     Latitude: 43 14N     Longitude: 072 54W

WEATHER
 
SELECT A DAY
Number of Records: 466,156;   Date Range: 1/1/95 - 12/16/14
 
SHARE

PRINT THIS DATA

[ ← Previous Day ]
WEATHER ALMANAC - FEBRUARY 16, 2014
[ Next Day → ]
[ °C ]   °F
Weather ElementAverageHighLow
Temperature16.9 °F23 °F (2:35 pm)8.6 °F (11:35 pm)
Dewpoint2.9 °F14 °F (1:35 am)-7.6 °F (9:55 pm)
Humidity56.8 %93 % (3:35 am)36 % (2:35 pm)
Barometer29.81 in30.01 in (11:55 pm)29.68 in (2:35 am)
Wind Speed7.9 mph15 mph (12:35 pm)
Wind Gust24.2 mph (12:35 pm)
Weather ElementAverage
Visibility10 mi
Wind DirectionWNW (302.3 °)

Weather ElementTotal
Precipitation---
Heating Degree Days49.2 (Base 65)
Averaged from 71 records on February 16, 2014
WEATHER CONDITIONS BREAKOUT
WIND DIRECTION BREAKOUT
WEATHER BY HOUR - FEBRUARY 16, 2014
[ °C ]   °F
Local TimeTemperatureDewpointHumidityBarometerVisibilityWind DirectionWind SpeedGust SpeedPrecipitationEventsConditions
12:35 AM19.4 °F12.2 °F74 %29.69 in10.0 miNW (320°)12.7 mph21.9 mphOvercast
12:55 AM19.4 °F12.2 °F74 %29.69 in10.0 miNNW (330°)11.5 mph20.7 mphMostly Cloudy
1:15 AM19.4 °F12.2 °F74 %29.69 in10.0 miNNW (330°)12.7 mph20.7 mphMostly Cloudy
1:35 AM17.6 °F14.0 °F86 %29.69 in10.0 miNorth (350°)11.5 mph17.3 mphOvercast
1:55 AM17.6 °F12.2 °F79 %29.69 in10.0 miNW (320°)8.1 mph16.1 mphScattered Clouds
2:15 AM17.6 °F12.2 °F79 %29.69 in10.0 miNW (320°)8.1 mphScattered Clouds
2:35 AM17.6 °F12.2 °F79 %29.68 in10.0 miNW (310°)8.1 mphMostly Cloudy
2:55 AM15.8 °F12.2 °F86 %29.68 in10.0 miNW (310°)6.9 mphMostly Cloudy
3:15 AM15.8 °F12.2 °F86 %29.68 in10.0 miNW (310°)8.1 mphScattered Clouds
3:35 AM15.8 °F14.0 °F93 %29.69 in10.0 miNW (310°)6.9 mphMostly Cloudy
3:55 AM15.8 °F12.2 °F86 %29.69 in10.0 miWNW (300°)8.1 mph16.1 mphOvercast
4:15 AM15.8 °F10.4 °F79 %29.69 in10.0 miNW (310°)6.9 mphOvercast
4:35 AM15.8 °F8.6 °F73 %29.70 in10.0 miWNW (300°)8.1 mphOvercast
4:55 AM15.8 °F8.6 °F73 %29.70 in10.0 miNW (310°)6.9 mphOvercast
5:15 AM15.8 °F8.6 °F73 %29.71 in10.0 miNW (310°)6.9 mphOvercast
5:35 AM15.8 °F10.4 °F79 %29.71 in10.0 miWNW (290°)6.9 mphOvercast
5:55 AM14.0 °F8.6 °F79 %29.72 in10.0 miWNW (290°)9.2 mphOvercast
6:15 AM14.0 °F6.8 °F73 %29.73 in10.0 miWNW (300°)10.4 mphOvercast
6:35 AM14.0 °F6.8 °F73 %29.73 in10.0 miWNW (300°)6.9 mphOvercast
6:55 AM14.0 °F8.6 °F79 %29.74 in10.0 miWNW (300°)6.9 mphOvercast
7:15 AM14.0 °F6.8 °F73 %29.75 in10.0 miNW (310°)6.9 mphOvercast
7:35 AM12.2 °F6.8 °F79 %29.76 in10.0 miWNW (300°)6.9 mphOvercast
7:55 AM12.2 °F6.8 °F79 %29.76 in10.0 miNW (320°)6.9 mphOvercast
8:15 AM12.2 °F3.2 °F67 %29.77 in10.0 miNNW (330°)6.9 mphOvercast
8:35 AM12.2 °F6.8 °F79 %29.77 in10.0 miNorth (350°)9.2 mphMostly Cloudy
8:55 AM12.2 °F5.0 °F73 %29.77 in10.0 miNorth (10°)8.1 mphOvercast
9:15 AM12.2 °F5.0 °F73 %29.78 in10.0 miNorth (350°)6.9 mphOvercast
9:35 AM12.2 °F5.0 °F73 %29.78 in10.0 miWNW (300°)8.1 mphOvercast
9:55 AM14.0 °F3.2 °F62 %29.79 in10.0 miWest (270°)6.9 mphMostly Cloudy
10:15 AM15.8 °F3.2 °F58 %29.80 in10.0 miWest (260°)4.6 mphOvercast
10:35 AM15.8 °F1.4 °F53 %29.81 in10.0 miWest (260°)12.7 mph17.3 mphMostly Cloudy
10:55 AM17.6 °F-0.4 °F45 %29.81 in10.0 miWNW (290°)8.1 mph18.4 mphPartly Cloudy
11:15 AM17.6 °F-0.4 °F45 %29.81 in10.0 miWest (270°)10.4 mph19.6 mphClear
11:35 AM17.6 °F-0.4 °F45 %29.81 in10.0 miWNW (290°)12.7 mphClear
11:55 AM19.4 °F1.4 °F46 %29.81 in10.0 miWNW (290°)10.4 mph16.1 mphClear
12:15 PM19.4 °F1.4 °F46 %29.80 in10.0 miWNW (290°)13.8 mph20.7 mphClear
12:35 PM19.4 °F-0.4 °F42 %29.81 in10.0 miWNW (290°)15.0 mph24.2 mphClear
12:55 PM21.2 °F1.4 °F42 %29.81 in10.0 miWNW (300°)8.1 mph18.4 mphClear
1:15 PM21.2 °F1.4 °F42 %29.81 in10.0 miNW (310°)10.4 mph19.6 mphClear
1:35 PM21.2 °F-0.4 °F39 %29.80 in10.0 miNW (310°)12.7 mph19.6 mphClear
1:55 PM21.2 °F1.4 °F42 %29.80 in10.0 miNW (310°)11.5 mph19.6 mphClear
2:15 PM21.2 °F1.4 °F42 %29.80 in10.0 miWNW (290°)4.6 mph17.3 mphClear
2:35 PM23.0 °F-0.4 °F36 %29.80 in10.0 miNW (320°)9.2 mph20.7 mphClear
2:55 PM23.0 °F-0.4 °F36 %29.81 in10.0 miWNW (290°)13.8 mph21.9 mphClear
3:15 PM23.0 °F-0.4 °F36 %29.81 in10.0 miWNW (290°)11.5 mph20.7 mphClear
3:35 PM23.0 °F-0.4 °F36 %29.81 in10.0 miWNW (290°)9.2 mph19.6 mphClear
3:55 PM23.0 °F-0.4 °F36 %29.81 in10.0 miWNW (290°)9.2 mph21.9 mphClear
4:15 PM23.0 °F-0.4 °F36 %29.81 in10.0 miWNW (300°)4.6 mphClear
4:35 PM23.0 °F-0.4 °F36 %29.82 in10.0 miWNW (290°)5.8 mphClear
4:55 PM23.0 °F-0.4 °F36 %29.82 in10.0 miWNW (290°)6.9 mphClear
5:15 PM21.2 °F-0.4 °F39 %29.83 in10.0 miNW (310°)5.8 mphClear
5:35 PM21.2 °F-0.4 °F39 %29.84 in10.0 miNNW (330°)3.5 mphClear
5:55 PM21.2 °F-2.2 °F36 %29.85 in10.0 miNW (320°)5.8 mphClear
6:15 PM19.4 °F-2.2 °F39 %29.86 in10.0 miNorth (360°)6.9 mphClear
6:35 PM17.6 °F1.4 °F49 %29.87 in10.0 miNorth (360°)4.6 mphClear
6:55 PM17.6 °F1.4 °F49 %29.88 in10.0 miNorth (350°)4.6 mphClear
7:15 PM17.6 °F1.4 °F49 %29.88 in10.0 miNorth (350°)4.6 mphClear
7:35 PM17.6 °F-0.4 °F45 %29.89 in10.0 miNNW (330°)5.8 mphClear
7:55 PM17.6 °F-2.2 °F42 %29.90 in10.0 miNNW (330°)8.1 mphClear
8:15 PM17.6 °F-0.4 °F45 %29.91 in10.0 miNW (320°)5.8 mphClear
8:35 PM15.8 °F-2.2 °F45 %29.92 in10.0 miNNW (340°)5.8 mphClear
8:55 PM15.8 °F-2.2 °F45 %29.94 in10.0 miNNW (340°)9.2 mphClear
9:15 PM15.8 °F-5.8 °F38 %29.95 in10.0 miNW (320°)9.2 mph20.7 mphClear
9:35 PM14.0 °F-5.8 °F41 %29.95 in10.0 miNW (310°)6.9 mphClear
9:55 PM14.0 °F-7.6 °F38 %29.96 in10.0 miNW (310°)8.1 mphClear
10:15 PM12.2 °F-5.8 °F45 %29.97 in10.0 miWNW (300°)5.8 mphClear
10:35 PM12.2 °F-5.8 °F45 %29.98 in10.0 miWNW (290°)4.6 mphClear
10:55 PM10.4 °F-5.8 °F48 %29.99 in10.0 miNW (310°)5.8 mphClear
11:15 PM10.4 °F-7.6 °F44 %30.00 in10.0 miNorth (350°)3.5 mphClear
11:35 PM8.6 °F-5.8 °F52 %30.00 in10.0 miCalmClear
11:55 PM8.6 °F-5.8 °F52 %30.01 in10.0 miNorth (350°)5.8 mphClear
Hourly data recorded from KRUT, located miles away from Peru, Vermont







STORIES FROM OUR PARTNERS